GW3762 Weather Reports


time (UTC)temp
F
wind
direction
speed
knots
gust
knots
rain 1hr
in
rain 24hr
in
rain mn
in
humidity
%
barometer
mb
20260506175959 56 225 0.9 7.0 0.02 0.02 0.02 93 1008.9
20260506174457 56 213 0.9 2.6 0.01 0.01 0.01 92 1008.7
20260506173956 56 159 0.9 2.6 0.01 0.01 0.01 92 1009.0
20260506172457 57 215 0.0 4.3 0.00 0.00 0.00 91 1009.3
20260506171958 57 248 1.7 4.3 0.00 0.00 0.00 91 1009.5
20260506171457 57 165 0.0 3.5 0.00 0.00 0.00 90 1009.6
20260506170457 58 245 2.6 6.1 0.00 0.00 0.00 89 1009.9
20260506165959 58 223 0.9 6.1 0.00 0.00 0.00 89 1010.1
20260506165456 58 224 3.5 4.3 0.00 0.00 0.00 89 1010.1
20260506164957 58 229 2.6 4.3 0.00 0.00 0.00 88 1010.0
20260506164457 58 236 1.7 4.3 0.00 0.00 0.00 88 1010.1
20260506163957 58 215 1.7 4.3 0.00 0.00 0.00 87 1010.1
20260506163458 59 237 3.5 4.3 0.00 0.00 0.00 86 1010.2
20260506162957 59 257 3.5 6.1 0.00 0.00 0.00 86 1010.1
20260506162457 59 250 0.9 6.1 0.00 0.00 0.00 86 1010.0
20260506161957 59 223 3.5 4.3 0.00 0.00 0.00 85 1010.1
20260506161457 60 215 1.7 4.3 0.00 0.00 0.00 85 1010.1
20260506160957 60 190 0.9 3.5 0.00 0.00 0.00 84 1010.1
20260506160457 61 224 1.7 4.3 0.00 0.00 0.00 84 1010.2
20260506155959 61 213 1.7 5.2 0.00 0.00 0.00 83 1010.2
20260506155457 61 178 0.9 7.0 0.00 0.00 0.00 83 1010.4
20260506154957 61 238 5.2 7.0 0.00 0.00 0.00 83 1010.5
20260506153958 62 228 1.7 7.0 0.00 0.00 0.00 83 1010.4
20260506153457 61 229 1.7 7.0 0.00 0.00 0.00 84 1010.5
20260506152957 61 219 1.7 7.0 0.00 0.00 0.00 84 1010.8
20260506152458 61 227 2.6 6.1 0.00 0.00 0.00 84 1010.7
20260506151957 61 234 1.7 6.1 0.00 0.00 0.00 83 1010.4
20260506150956 61 240 1.7 5.2 0.00 0.00 0.00 84 1010.3
20260506150458 61 235 1.7 4.3 0.00 0.00 0.00 84 1010.4
20260506145956 61 222 2.6 4.3 0.00 0.00 0.00 83 1010.4
20260506144956 61 232 3.5 6.1 0.00 0.00 0.00 82 1010.3
20260506144456 62 177 0.9 5.2 0.00 0.00 0.00 81 1010.3
20260506143956 62 242 3.5 6.1 0.00 0.00 0.00 82 1010.4
20260506143457 62 246 1.7 6.1 0.00 0.00 0.00 82 1010.5
20260506142455 63 263 6.1 6.1 0.00 0.00 0.00 80 1010.6
20260506141956 63 200 3.5 4.3 0.00 0.00 0.00 80 1010.5
20260506141456 64 215 0.0 4.3 0.00 0.00 0.00 80 1010.6
20260506140956 64 227 3.5 4.3 0.00 0.00 0.00 82 1010.5
20260506135959 63 234 2.6 6.1 0.00 0.00 0.00 82 1010.6
20260506134457 62 228 2.6 7.0 0.00 0.00 0.00 84 1010.7
20260506133957 61 138 0.9 8.7 0.00 0.00 0.00 84 1010.6
20260506133457 61 238 5.2 8.7 0.00 0.00 0.00 84 1010.6
20260506131457 60 238 3.5 7.0 0.00 0.00 0.00 86 1010.4
20260506130957 60 219 2.6 4.3 0.00 0.00 0.00 87 1010.4
20260506130456 60 228 1.7 7.0 0.00 0.00 0.00 86 1010.4
20260506125458 60 263 3.5 8.7 0.00 0.00 0.00 86 1010.5
20260506124957 60 246 1.7 8.7 0.00 0.00 0.00 87 1010.5
20260506124457 60 217 2.6 8.7 0.00 0.00 0.00 87 1010.6
20260506123956 59 223 1.7 9.6 0.00 0.00 0.00 87 1010.6
20260506123457 59 246 3.5 7.8 0.00 0.00 0.00 87 1010.7
20260506122957 59 254 2.6 8.7 0.00 0.00 0.00 87 1010.9
20260506122000 59 234 4.3 8.7 0.00 0.00 0.00 88 1011.1
20260506121458 59 229 4.3 8.7 0.00 0.00 0.00 88 1011.0
20260506120956 59 236 3.5 8.7 0.00 0.00 0.00 88 1010.9
20260506120457 58 229 2.6 7.8 0.00 0.00 0.00 89 1010.8
20260506115959 58 235 2.6 7.8 0.00 0.00 0.00 89 1010.8
20260506115457 58 215 0.9 6.1 0.00 0.00 0.00 90 1010.8
20260506114957 58 263 3.5 6.1 0.00 0.00 0.00 91 1010.8
20260506114457 57 236 0.9 6.1 0.00 0.00 0.00 91 1010.8
20260506113957 57 248 3.5 7.0 0.00 0.00 0.00 91 1010.7
20260506113457 56 231 0.9 7.0 0.00 0.00 0.00 92 1010.7
20260506112957 56 232 2.6 6.1 0.00 0.00 0.00 92 1010.8
20260506111458 55 225 2.6 4.3 0.00 0.00 0.00 92 1010.8
20260506110957 55 228 3.5 4.3 0.00 0.00 0.00 92 1010.9
20260506110457 55 247 1.7 6.1 0.00 0.00 0.00 92 1011.0
20260506105959 55 227 1.7 7.0 0.00 0.00 0.00 92 1011.0
20260506105457 55 263 6.1 7.0 0.00 0.00 0.00 93 1011.0
20260506104958 55 234 1.7 6.1 0.00 0.00 0.00 93 1010.9
20260506104456 54 232 2.6 4.3 0.00 0.00 0.00 93 1010.8
20260506103958 54 221 3.5 3.5 0.00 0.00 0.00 93 1010.6
20260506103501 54 231 0.0 3.5 0.00 0.00 0.00 93 1010.7
20260506102957 54 225 2.6 3.5 0.00 0.00 0.00 93 1010.9
20260506100957 54 224 0.9 2.6 0.00 0.00 0.00 92 1010.9
20260506095956 54 230 1.7 3.5 0.00 0.00 0.00 92 1010.7
20260506095456 54 220 2.6 3.5 0.00 0.00 0.00 92 1010.8
20260506094957 54 203 2.6 3.5 0.00 0.00 0.00 92 1010.8
20260506094456 54 183 1.7 3.5 0.00 0.00 0.00 92 1010.6
20260506093957 54 232 2.6 3.5 0.00 0.00 0.00 92 1010.6
20260506093456 54 217 0.9 3.5 0.00 0.00 0.00 92 1010.6
20260506092957 54 200 1.7 3.5 0.00 0.00 0.00 92 1010.6
20260506092457 54 229 0.9 3.5 0.00 0.00 0.00 92 1010.6
20260506091456 54 221 1.7 3.5 0.00 0.00 0.00 92 1010.8
20260506090957 54 229 0.9 3.5 0.00 0.00 0.00 92 1010.8
20260506090456 54 221 3.5 3.5 0.00 0.00 0.00 92 1010.8
20260506085959 54 233 0.9 3.5 0.00 0.00 0.00 92 1010.7
20260506085457 54 224 2.6 3.5 0.00 0.00 0.00 91 1010.8
20260506084957 54 241 2.6 4.3 0.00 0.00 0.00 91 1010.8
20260506084457 54 232 3.5 6.1 0.00 0.00 0.00 91 1010.9
20260506083957 54 215 0.9 7.8 0.00 0.00 0.00 91 1010.9
20260506082457 54 201 1.7 7.0 0.00 0.00 0.00 91 1011.0
20260506081957 54 238 2.6 7.0 0.00 0.00 0.00 91 1011.0
20260506081456 54 225 2.6 4.3 0.00 0.00 0.00 91 1010.9
20260506080958 54 235 1.7 4.3 0.00 0.00 0.00 91 1010.9
20260506080456 54 226 0.0 3.5 0.00 0.00 0.00 91 1010.8
20260506073455 55 263 5.2 5.2 0.00 0.00 0.00 90 1011.1
20260506072456 55 235 1.7 4.3 0.00 0.00 0.00 90 1011.1
20260506071956 55 251 3.5 4.3 0.00 0.00 0.00 90 1011.2
20260506070955 55 232 2.6 4.3 0.00 0.00 0.00 89 1011.2
20260506062456 56 223 1.7 4.3 0.00 0.00 0.00 87 1011.0
20260506061957 56 246 4.3 4.3 0.00 0.00 0.00 87 1011.0
20260506061456 56 239 2.6 7.0 0.00 0.00 0.00 87 1011.0
20260506060456 57 236 0.9 7.0 0.00 0.00 0.00 86 1011.1
20260506050956 58 233 3.5 5.2 0.00 0.00 0.00 84 1011.4
20260506050456 58 240 3.5 5.2 0.00 0.00 0.00 83 1011.5
20260506044458 59 239 3.5 4.3 0.00 0.00 0.00 83 1011.5
20260506043959 59 226 3.5 6.1 0.00 0.00 0.00 83 1011.6
20260506042959 59 231 3.5 7.0 0.00 0.00 0.00 82 1011.5
20260506042458 59 232 0.9 7.8 0.00 0.00 0.00 82 1011.6
20260506041959 59 256 6.1 7.8 0.00 0.00 0.00 82 1011.5
20260506041459 59 233 3.5 7.0 0.00 0.00 0.00 81 1011.5
20260506040958 59 236 3.5 7.8 0.00 0.00 0.00 81 1011.6
20260506040458 59 238 3.5 7.8 0.00 0.00 0.00 81 1011.6
20260506040004 59 227 1.7 7.0 0.00 0.00 0.00 80 1011.6
20260506035458 59 256 4.3 7.0 0.00 0.00 0.00 80 1011.6
20260506034959 59 240 3.5 7.8 0.00 0.00 0.00 79 1011.5
20260506034459 60 237 5.2 7.8 0.00 0.00 0.00 79 1011.5
20260506033958 60 258 7.0 7.8 0.00 0.00 0.00 79 1011.5
20260506033459 60 250 6.1 7.8 0.00 0.00 0.00 78 1011.5
20260506032959 60 232 5.2 7.8 0.00 0.00 0.00 78 1011.5
20260506032459 60 236 4.3 11.3 0.00 0.00 0.00 78 1011.5
20260506031958 60 229 5.2 11.3 0.00 0.00 0.00 78 1011.4
20260506031459 60 217 5.2 10.4 0.00 0.00 0.00 77 1011.5
20260506030958 60 255 7.0 10.4 0.00 0.00 0.00 77 1011.5
20260506030459 60 226 3.5 7.8 0.00 0.00 0.00 77 1011.5
20260506030000 60 242 7.0 11.3 0.00 0.00 0.00 77 1011.6
20260506025458 60 222 6.1 12.2 0.00 0.00 0.00 77 1011.5
20260506024958 60 230 4.3 12.2 0.00 0.00 0.00 77 1011.6
20260506023958 60 223 3.5 11.3 0.00 0.00 0.00 76 1011.6
20260506023459 60 215 6.1 9.6 0.00 0.00 0.00 76 1011.5
20260506022959 60 233 5.2 9.6 0.00 0.00 0.00 76 1011.5
20260506022459 60 197 4.3 8.7 0.00 0.00 0.00 76 1011.5
20260506021959 60 225 4.3 9.6 0.00 0.00 0.00 76 1011.4
20260506021500 60 239 4.3 9.6 0.00 0.00 0.00 76 1011.5
20260506020958 60 226 3.5 6.1 0.00 0.00 0.00 76 1011.5
20260506020458 60 230 4.3 7.0 0.00 0.00 0.00 75 1011.4
20260506015959 60 224 4.3 7.8 0.00 0.00 0.00 75 1011.3
20260506015457 60 251 3.5 7.8 0.00 0.00 0.00 75 1011.3
20260506014957 60 220 2.6 7.8 0.00 0.00 0.00 75 1011.3
20260506014457 60 229 4.3 7.8 0.00 0.00 0.00 75 1011.2
20260506013958 60 217 5.2 7.0 0.00 0.00 0.00 75 1011.2
20260506012957 60 220 2.6 7.8 0.00 0.00 0.00 74 1011.1
20260506011958 61 234 1.7 7.0 0.00 0.00 0.00 74 1010.9
20260506011457 61 238 2.6 10.4 0.00 0.00 0.00 74 1010.9
20260506010958 61 236 5.2 10.4 0.00 0.00 0.00 74 1010.7
20260506010457 60 221 3.5 7.0 0.00 0.00 0.00 74 1010.7
20260506005458 61 225 2.6 7.8 0.00 0.00 0.00 73 1010.6
20260506004958 61 218 0.9 7.8 0.00 0.00 0.00 73 1010.5
20260506004459 61 251 4.3 8.7 0.00 0.00 0.00 72 1010.4
20260506003459 61 230 4.3 9.6 0.00 0.00 0.00 72 1010.3
20260506002958 61 229 4.3 10.4 0.00 0.00 0.00 71 1010.2
20260506002459 61 242 5.2 7.0 0.00 0.00 0.00 71 1010.2
20260506001959 61 242 7.8 7.8 0.00 0.00 0.00 71 1010.2
20260506001458 62 222 2.6 7.8 0.00 0.00 0.00 70 1010.2
20260506000959 62 236 6.1 7.8 0.00 0.00 0.00 70 1010.1
20260506000458 62 226 6.1 8.7 0.00 0.00 0.00 70 1010.1
20260505235458 62 229 5.2 9.6 0.00 0.00 0.00 69 1009.9
20260505235001 63 226 2.6 10.4 0.00 0.00 0.00 69 1009.8
20260505234457 63 250 8.7 10.4 0.00 0.00 0.00 68 1009.8
20260505233958 63 222 3.5 10.4 0.00 0.00 0.00 69 1009.8
20260505233458 63 231 4.3 9.6 0.00 0.00 0.00 69 1009.8
20260505232958 63 239 5.2 8.7 0.00 0.00 0.00 68 1009.7
20260505232459 64 229 2.6 7.0 0.00 0.00 0.00 68 1009.7
20260505231957 64 221 3.5 10.4 0.00 0.00 0.00 68 1009.5
20260505230957 64 235 2.6 10.4 0.00 0.00 0.00 68 1009.4
20260505230500 65 234 3.5 10.4 0.00 0.00 0.00 67 1009.4
20260505225957 65 226 1.7 11.3 0.00 0.00 0.00 67 1009.2
20260505224958 65 251 4.3 10.4 0.00 0.00 0.00 67 1009.3
20260505223957 66 242 5.2 12.2 0.00 0.00 0.00 67 1009.3
20260505222958 66 233 3.5 10.4 0.00 0.00 0.00 67 1009.3
20260505222457 66 242 1.7 10.4 0.00 0.00 0.00 67 1009.4
20260505221958 66 234 4.3 8.7 0.00 0.00 0.00 66 1009.4
20260505221457 66 238 3.5 10.4 0.00 0.00 0.00 66 1009.4
20260505221001 66 238 4.3 10.4 0.00 0.00 0.00 66 1009.4
20260505220458 66 233 1.7 10.4 0.00 0.00 0.00 66 1009.4
20260505215957 66 256 1.7 7.0 0.00 0.00 0.00 67 1009.4
20260505215457 67 245 2.6 9.6 0.00 0.00 0.00 67 1009.3
20260505214957 67 240 2.6 9.6 0.00 0.00 0.00 65 1009.2
20260505214458 67 224 2.6 7.0 0.00 0.00 0.00 66 1009.2
20260505213457 67 190 0.9 7.0 0.00 0.00 0.00 64 1009.2
20260505212958 68 259 3.5 7.0 0.00 0.00 0.00 64 1009.1
20260505212458 68 161 1.7 6.1 0.00 0.00 0.00 63 1009.1
20260505211957 68 234 2.6 6.1 0.00 0.00 0.00 65 1009.0
20260505211458 68 200 1.7 6.1 0.00 0.00 0.00 63 1008.9
20260505210957 69 192 1.7 6.1 0.00 0.00 0.00 62 1008.9
20260505210457 69 233 0.0 6.1 0.00 0.00 0.00 64 1009.0
20260505205457 69 196 1.7 4.3 0.00 0.00 0.00 63 1009.1
20260505204957 69 238 0.9 3.5 0.00 0.00 0.00 63 1009.1
20260505204458 70 216 1.7 6.1 0.00 0.00 0.00 62 1008.9
20260505203958 70 216 1.7 7.0 0.00 0.00 0.00 62 1008.9
20260505203457 70 228 1.7 7.0 0.00 0.00 0.00 62 1009.0
20260505202957 70 220 1.7 6.1 0.00 0.00 0.00 62 1009.0
20260505202457 71 157 2.6 6.1 0.00 0.00 0.00 59 1009.1
20260505201958 71 201 1.7 10.4 0.00 0.00 0.00 60 1009.2
20260505201457 71 254 6.1 10.4 0.00 0.00 0.00 61 1009.1
20260505200957 71 164 1.7 6.1 0.00 0.00 0.00 58 1009.2
20260505200458 72 217 1.7 6.1 0.00 0.00 0.00 60 1009.3
20260505195958 72 210 2.6 7.8 0.00 0.00 0.00 59 1009.3
20260505195457 72 208 2.6 8.7 0.00 0.00 0.00 58 1009.3
20260505194958 72 212 1.7 8.7 0.00 0.00 0.00 57 1009.4
20260505194458 72 222 5.2 7.8 0.00 0.00 0.00 57 1009.4
20260505193957 73 209 3.5 7.8 0.00 0.00 0.00 58 1009.4
20260505193457 73 236 4.3 7.8 0.00 0.00 0.00 58 1009.4
20260505192957 73 249 6.1 7.8 0.00 0.00 0.00 59 1009.5
20260505192458 73 219 2.6 7.0 0.00 0.00 0.00 57 1009.5
20260505191957 73 246 2.6 9.6 0.00 0.00 0.00 59 1009.5
20260505190957 73 101 2.6 7.8 0.00 0.00 0.00 59 1009.6
20260505190458 73 231 0.9 6.1 0.00 0.00 0.00 60 1009.8
20260505185959 73 194 0.9 5.2 0.00 0.00 0.00 58 1009.9
20260505185457 74 197 0.9 9.6 0.00 0.00 0.00 59 1009.9
20260505184957 74 244 0.0 9.6 0.00 0.00 0.00 58 1010.0
20260505184457 74 250 7.0 7.8 0.00 0.00 0.00 57 1010.0
20260505183957 74 227 1.7 7.8 0.00 0.00 0.00 58 1010.0
20260505183458 74 232 3.5 7.8 0.00 0.00 0.00 61 1010.0
20260505182957 74 212 2.6 8.7 0.00 0.00 0.00 59 1009.9
20260505182457 74 241 3.5 8.7 0.00 0.00 0.00 58 1010.0
20260505181958 74 238 3.5 11.3 0.00 0.00 0.00 58 1010.0
20260505181457 75 259 6.1 11.3 0.00 0.00 0.00 60 1010.0
20260505180957 74 259 5.2 7.8 0.00 0.00 0.00 58 1010.0